GW6613 Weather Reports


time (UTC)temp
F
wind
direction
speed
knots
gust
knots
rain 1hr
in
rain 24hr
in
rain mn
in
humidity
%
barometer
mb
20260506143035 69 360 0.9 7.0 0.00 0.00 0.00 54 1007.4
20260506143012 50 291 1.7 3.5 0.00 1.04 0.56 81 1012.0
20260506142531 68 221 1.7 7.0 0.00 0.00 0.00 54 1007.4
20260506142506 50 297 0.0 3.5 0.00 1.04 0.56 84 1012.1
20260506142033 68 176 0.9 2.6 0.00 0.00 0.00 54 1007.4
20260506142011 49 304 1.7 3.5 0.00 1.04 0.56 80 1012.1
20260506141516 49 293 0.9 2.6 0.00 1.04 0.56 84 1011.9
20260506141034 68 245 0.9 4.3 0.00 0.00 0.00 54 1007.5
20260506141009 49 296 0.9 2.6 0.00 1.04 0.56 86 1012.0
20260506140534 68 164 0.9 3.5 0.00 0.00 0.00 54 1007.5
20260506140503 49 304 0.9 2.6 0.00 1.04 0.56 83 1011.8
20260506140031 68 180 0.0 3.5 0.00 0.00 0.00 54 1007.3
20260506140005 49 301 0.0 2.6 0.00 1.04 0.56 86 1011.9
20260506135529 68 360 0.0 4.3 0.00 0.00 0.00 55 1007.5
20260506135504 48 301 1.7 2.6 0.00 1.04 0.56 87 1011.6
20260506135031 68 360 1.7 4.3 0.00 0.00 0.00 54 1007.6
20260506135003 48 290 0.0 1.7 0.00 1.04 0.56 89 1011.7
20260506134528 68 360 0.9 6.1 0.00 0.00 0.00 55 1007.6
20260506134505 48 290 0.0 2.6 0.00 1.04 0.56 88 1011.8
20260506134037 47 297 0.9 2.6 0.00 1.04 0.56 85 1011.9
20260506134031 68 360 0.0 6.1 0.00 0.00 0.00 55 1007.5
20260506133531 68 360 0.0 7.0 0.00 0.00 0.00 55 1007.6
20260506133507 47 296 0.0 1.7 0.00 1.04 0.56 89 1012.0
20260506133029 68 360 1.7 7.0 0.00 0.00 0.00 54 1007.7
20260506133012 47 296 0.0 1.7 0.00 1.04 0.56 90 1011.8
20260506132529 68 360 1.7 4.3 0.00 0.00 0.00 55 1007.6
20260506132509 47 296 0.0 2.6 0.00 1.04 0.56 89 1011.8
20260506132032 68 360 0.9 4.3 0.00 0.00 0.00 56 1007.5
20260506132006 47 296 1.7 2.6 0.00 1.04 0.56 89 1011.8
20260506131534 47 295 0.0 1.7 0.00 1.04 0.56 91 1011.4
20260506131028 67 197 1.7 6.1 0.00 0.00 0.00 57 1007.7
20260506131002 46 293 0.0 1.7 0.00 1.04 0.56 91 1011.3
20260506130528 66 169 1.7 6.1 0.00 0.00 0.00 57 1007.8
20260506130503 46 293 0.9 1.7 0.00 1.04 0.56 91 1011.3
20260506130027 66 360 0.0 4.3 0.00 0.00 0.00 58 1007.6
20260506130003 46 286 0.9 1.7 0.00 1.04 0.56 91 1011.1
20260506125528 66 360 0.9 5.2 0.00 0.00 0.00 58 1007.5
20260506125502 46 300 0.0 1.7 0.00 1.04 0.56 92 1011.1
20260506125027 66 360 0.9 5.2 0.00 0.00 0.00 57 1007.4
20260506125003 46 300 0.0 2.6 0.00 1.04 0.56 91 1011.2
20260506124527 66 360 0.0 7.0 0.00 0.00 0.00 58 1007.3
20260506124503 46 300 0.9 2.6 0.00 1.04 0.56 91 1011.4
20260506124027 66 172 1.7 7.0 0.00 0.00 0.00 58 1007.4
20260506124004 46 281 0.0 1.7 0.00 1.04 0.56 93 1011.3
20260506123527 66 184 0.0 7.0 0.00 0.00 0.00 59 1007.2
20260506123505 45 281 0.9 2.6 0.00 1.04 0.56 92 1011.3
20260506123030 66 191 0.9 3.5 0.00 0.00 0.00 58 1007.3
20260506123006 45 293 0.9 2.6 0.00 1.04 0.56 92 1011.4
20260506122526 66 197 0.0 3.5 0.00 0.00 0.00 59 1007.4
20260506122504 45 293 0.0 0.9 0.00 1.04 0.56 93 1011.4
20260506122026 65 191 0.0 3.5 0.00 0.00 0.00 58 1007.4
20260506122004 45 293 0.0 1.7 0.00 1.04 0.56 93 1011.4
20260506121509 45 293 0.0 1.7 0.00 1.04 0.56 94 1011.1
20260506121026 66 186 0.0 4.3 0.00 0.00 0.00 59 1007.7
20260506121010 45 293 0.0 0.9 0.00 1.04 0.56 94 1010.9
20260506120525 66 154 1.7 5.2 0.00 0.00 0.00 59 1007.7
20260506120509 45 292 0.0 0.9 0.00 1.04 0.56 95 1011.0
20260506120038 66 360 0.0 4.3 0.00 0.00 0.00 59 1007.6
20260506120019 45 292 0.0 0.9 0.00 1.04 0.56 94 1010.8
20260506115525 66 360 0.9 5.2 0.00 0.00 0.00 58 1007.8
20260506115507 45 292 0.0 0.9 0.00 1.04 0.56 94 1010.6
20260506115025 66 360 1.7 5.2 0.00 0.00 0.00 58 1007.8
20260506115003 44 292 0.0 0.9 0.00 1.04 0.56 94 1010.7
20260506114524 66 360 0.9 5.2 0.00 0.00 0.00 59 1007.8
20260506114503 44 292 0.0 0.9 0.00 1.04 0.56 94 1010.6
20260506114025 65 360 0.9 4.3 0.00 0.00 0.00 59 1007.9
20260506114003 44 292 0.0 0.9 0.00 1.04 0.56 94 1010.3
20260506113525 65 214 0.9 4.3 0.00 0.00 0.00 59 1007.8
20260506113504 44 292 0.0 0.9 0.00 1.04 0.56 94 1010.1
20260506113030 65 195 0.0 4.3 0.00 0.00 0.00 59 1007.9
20260506113006 44 292 0.0 0.9 0.00 1.04 0.56 94 1009.9
20260506112527 65 165 1.7 6.1 0.00 0.00 0.00 60 1007.8
20260506112505 44 292 0.0 0.9 0.00 1.04 0.56 94 1009.9
20260506112024 65 360 0.9 6.1 0.00 0.00 0.00 60 1007.8
20260506112003 44 292 0.0 1.7 0.00 1.04 0.56 95 1010.4
20260506111841 43 292 0.9 1.7 0.00 1.04 0.56 94 1010.0
20260506111023 64 360 1.7 6.1 0.00 0.00 0.00 60 1007.8
20260506111004 44 292 0.0 0.9 0.00 1.04 0.56 94 1009.6
20260506110523 64 360 0.9 4.3 0.00 0.00 0.00 61 1007.8
20260506110506 44 292 0.0 0.9 0.00 1.04 0.56 94 1009.8
20260506110024 64 360 0.0 4.3 0.00 0.00 0.00 61 1007.6
20260506110012 44 292 0.0 0.9 0.00 1.04 0.56 94 1009.7
20260506105525 64 203 0.9 3.5 0.00 0.01 0.00 61 1007.6
20260506105508 44 292 0.0 1.7 0.00 1.04 0.56 94 1009.6
20260506105023 64 360 0.0 3.5 0.00 0.01 0.00 61 1007.5
20260506105007 43 292 0.0 2.6 0.00 1.04 0.56 94 1009.6
20260506104522 64 205 0.9 3.5 0.00 0.01 0.00 61 1007.5
20260506104519 43 293 0.9 2.6 0.00 1.04 0.56 94 1009.4
20260506104023 64 194 0.0 4.3 0.00 0.01 0.00 61 1007.6
20260506104006 44 293 0.0 1.7 0.00 1.04 0.56 94 1009.0
20260506103522 64 225 0.9 4.3 0.00 0.01 0.00 61 1007.8
20260506103502 44 292 0.0 1.7 0.00 1.04 0.56 94 1009.1
20260506103024 64 193 0.9 4.3 0.00 0.01 0.00 61 1007.7
20260506103003 44 292 0.0 1.7 0.00 1.04 0.56 95 1009.2
20260506102829 44 292 0.9 1.7 0.00 1.05 0.56 94 1009.3
20260506102522 64 187 0.0 6.1 0.00 0.01 0.00 61 1007.7
20260506102021 64 173 0.0 6.1 0.00 0.01 0.00 62 1007.6
20260506102005 44 292 0.9 1.7 0.00 1.05 0.56 94 1009.0
20260506101525 44 292 0.9 1.7 0.00 1.07 0.56 94 1009.1
20260506101410 44 290 0.9 1.7 0.00 1.08 0.56 94 1009.0
20260506101027 64 212 0.9 4.3 0.00 0.01 0.00 62 1007.5
20260506100526 64 198 0.0 3.5 0.00 0.01 0.00 62 1007.5
20260506100511 44 291 0.0 1.7 0.00 1.09 0.56 94 1009.0
20260506100021 64 164 0.9 5.2 0.00 0.01 0.00 62 1007.4
20260506100012 44 290 0.9 1.7 0.00 1.10 0.56 95 1008.8
20260506095811 44 290 0.0 1.7 0.00 1.11 0.56 94 1008.6
20260506095521 63 210 0.0 4.3 0.00 0.01 0.00 62 1007.4
20260506095305 44 290 0.9 1.7 0.01 1.11 0.56 94 1008.7
20260506095022 63 196 0.9 4.3 0.00 0.01 0.00 63 1007.3
20260506094521 63 184 0.0 2.6 0.00 0.01 0.00 63 1007.3
20260506094512 44 290 0.0 0.9 0.01 1.11 0.56 94 1008.7
20260506094021 63 196 0.0 2.6 0.00 0.01 0.00 63 1007.2
20260506094009 44 290 0.0 0.9 0.01 1.11 0.56 95 1008.7
20260506093522 63 197 0.9 3.5 0.00 0.01 0.00 63 1007.4
20260506093507 44 290 0.0 0.9 0.01 1.11 0.56 95 1008.7
20260506093020 63 200 0.9 3.5 0.00 0.01 0.00 63 1007.4
20260506092520 63 178 0.0 2.6 0.00 0.01 0.00 63 1007.3
20260506092512 44 290 0.9 1.7 0.01 1.11 0.56 94 1009.0
20260506092020 63 168 0.0 1.7 0.00 0.01 0.00 63 1007.4
20260506092003 44 290 0.0 1.7 0.01 1.11 0.56 95 1008.7
20260506091512 44 290 0.0 1.7 0.02 1.11 0.56 95 1008.7
20260506091019 63 188 0.0 2.6 0.00 0.01 0.00 63 1007.4
20260506091011 44 288 0.0 1.7 0.02 1.11 0.56 94 1008.5
20260506090519 63 200 0.0 2.6 0.00 0.01 0.00 62 1007.6
20260506090503 44 286 0.0 2.6 0.03 1.11 0.56 95 1008.4
20260506090024 63 205 0.0 1.7 0.00 0.01 0.00 62 1007.6
20260506090006 44 286 0.0 2.6 0.03 1.11 0.56 94 1008.2
20260506085519 63 207 0.0 2.6 0.00 0.01 0.00 62 1007.6
20260506085508 44 288 0.9 3.5 0.03 1.11 0.56 94 1008.1
20260506085017 63 209 0.0 1.7 0.00 0.01 0.00 62 1007.5
20260506085004 44 292 0.9 3.5 0.02 1.10 0.55 94 1008.1
20260506084520 63 207 0.0 2.6 0.00 0.01 0.00 62 1007.7
20260506084510 45 308 0.9 3.5 0.02 1.10 0.55 95 1008.1
20260506084016 63 209 0.0 2.6 0.00 0.01 0.00 62 1007.6
20260506084007 45 300 0.9 3.5 0.02 1.10 0.55 95 1008.2
20260506083516 64 161 0.0 2.6 0.00 0.01 0.00 61 1007.6
20260506083505 45 290 0.9 3.5 0.02 1.10 0.55 95 1008.3
20260506083018 45 288 1.7 3.5 0.02 1.10 0.55 95 1008.2
20260506083016 64 162 0.0 1.7 0.00 0.01 0.00 61 1007.6
20260506082514 64 162 0.0 0.9 0.00 0.01 0.00 61 1007.5
20260506082509 45 301 0.9 3.5 0.02 1.10 0.55 95 1008.2
20260506082014 64 160 0.0 3.5 0.00 0.01 0.00 61 1007.5
20260506082010 46 301 0.9 2.6 0.03 1.10 0.55 95 1007.7
20260506081522 46 311 0.0 2.6 0.03 1.09 0.54 95 1007.7
20260506081014 64 200 0.0 0.9 0.00 0.01 0.00 60 1007.5
20260506081007 46 305 0.9 2.6 0.04 1.09 0.54 95 1007.5
20260506080513 64 199 0.0 1.7 0.00 0.01 0.00 60 1007.5
20260506080504 46 307 0.9 3.5 0.04 1.08 0.52 95 1007.5
20260506073511 65 194 0.0 3.5 0.00 0.01 0.00 59 1007.7
20260506073506 47 271 0.9 1.7 0.15 1.08 0.52 95 1007.4
20260506073012 47 295 0.9 4.3 0.16 1.08 0.52 95 1007.2
20260506073010 65 189 0.0 2.6 0.00 0.01 0.00 59 1007.7
20260506072513 65 210 0.0 4.3 0.00 0.01 0.00 58 1007.7
20260506072508 47 309 2.6 7.0 0.18 1.08 0.52 95 1007.3
20260506072011 47 301 0.9 7.0 0.18 1.07 0.52 95 1007.2
20260506072008 65 213 0.0 4.3 0.00 0.01 0.00 58 1007.7
20260506071520 47 308 0.9 2.6 0.20 1.05 0.51 95 1007.3
20260506071009 48 298 0.0 3.5 0.21 1.04 0.50 95 1007.6
20260506070512 48 286 0.9 3.5 0.21 1.04 0.49 95 1007.6
20260506070508 65 192 0.0 2.6 0.00 0.01 0.00 57 1007.8
20260506062505 49 300 1.7 3.5 0.22 0.90 0.35 95 1006.6
20260506062008 49 304 0.0 3.5 0.22 0.89 0.34 95 1006.5
20260506062004 66 155 0.0 2.6 0.00 0.01 0.00 55 1007.9
20260506061517 49 297 0.9 2.6 0.20 0.86 0.31 94 1006.6
20260506061007 50 309 1.7 2.6 0.19 0.84 0.29 94 1006.6
20260506061004 66 175 0.0 2.6 0.00 0.01 0.00 54 1007.9
20260506060506 50 291 0.9 2.6 0.18 0.83 0.28 94 1006.4
20260506060504 66 190 0.0 2.6 0.00 0.01 0.00 54 1007.9
20260506051058 67 360 0.0 3.5 0.00 0.01 0.00 51 1008.5
20260506051006 58 77 0.0 2.6 0.08 0.65 0.10 94 1006.1
20260506050600 67 155 0.0 2.6 0.00 0.01 0.00 51 1008.7
20260506050506 58 146 0.9 7.0 0.09 0.65 0.10 94 1006.0
20260506050110 67 155 0.0 6.1 0.00 0.01 0.00 51 1008.7
20260506045055 67 142 0.0 1.7 0.00 0.01 0.00 50 1008.6
20260506045003 58 108 2.6 8.7 0.04 0.58 0.04 95 1005.9
20260506044556 68 141 0.0 4.3 0.00 0.01 0.00 50 1008.6
20260506044504 58 122 0.0 4.3 0.04 0.58 0.04 95 1005.9
20260506044055 68 188 0.0 4.3 0.00 0.01 0.00 50 1008.6
20260506044003 58 274 0.0 2.6 0.04 0.58 0.04 95 1006.0
20260506043555 68 178 0.9 3.5 0.00 0.01 0.00 49 1008.6
20260506043506 58 141 0.0 2.6 0.04 0.58 0.04 95 1006.0
20260506043101 68 165 0.0 2.6 0.00 0.01 0.00 49 1008.5
20260506043006 58 137 0.0 2.6 0.04 0.58 0.04 95 1006.0
20260506042554 68 163 0.0 3.5 0.00 0.01 0.00 49 1008.6
20260506042504 58 125 0.0 2.6 0.03 0.58 0.03 95 1006.2
20260506042053 68 179 1.7 6.1 0.00 0.01 0.00 48 1008.6
20260506042004 58 349 0.0 1.7 0.02 0.57 0.02 95 1006.1
20260506041653 68 184 0.0 5.2 0.00 0.01 0.00 49 1008.5
20260506041514 58 146 0.0 0.9 0.02 0.57 0.02 95 1005.9
20260506041052 68 185 0.0 5.2 0.00 0.01 0.00 49 1008.4
20260506041002 58 144 0.0 0.9 0.03 0.57 0.02 95 1006.1
20260506040552 68 222 0.9 5.2 0.00 0.01 0.00 48 1008.4
20260506040506 58 144 0.0 1.7 0.02 0.56 0.01 95 1006.0
20260506040005 58 149 0.0 1.7 0.01 0.55 0.00 95 1005.9
20260506035551 68 170 0.0 3.5 0.00 0.01 0.01 48 1008.4
20260506035505 58 153 0.0 0.9 0.01 0.55 0.55 95 1006.0
20260506035054 68 145 0.9 3.5 0.00 0.01 0.01 48 1008.3
20260506035002 58 153 0.0 0.9 0.01 0.55 0.55 95 1006.0
20260506034556 68 205 0.9 5.2 0.00 0.01 0.01 47 1008.4
20260506034503 58 153 0.0 0.0 0.01 0.55 0.55 95 1006.0
20260506034051 68 203 0.9 4.3 0.00 0.01 0.01 47 1008.4
20260506034004 58 153 0.0 0.0 0.02 0.55 0.55 95 1006.1
20260506033551 68 169 0.0 6.1 0.00 0.01 0.01 47 1008.5
20260506033503 58 153 0.0 0.0 0.02 0.55 0.55 95 1006.1
20260506033051 68 210 0.9 6.1 0.00 0.01 0.01 47 1008.5
20260506033005 58 153 0.0 0.0 0.02 0.55 0.55 95 1006.2
20260506032551 69 132 0.9 4.3 0.00 0.01 0.01 47 1008.5
20260506032503 58 153 0.0 0.0 0.02 0.55 0.55 95 1006.3
20260506032051 69 203 0.9 4.3 0.00 0.01 0.01 46 1008.4
20260506032004 58 153 0.0 0.0 0.02 0.55 0.55 95 1006.4
20260506031652 69 207 0.9 4.3 0.00 0.01 0.01 46 1008.4
20260506031507 58 153 0.0 0.0 0.02 0.55 0.55 95 1006.5
20260506031052 69 208 0.9 4.3 0.00 0.01 0.01 46 1008.4
20260506031005 58 153 0.0 0.0 0.02 0.54 0.54 95 1006.5
20260506030550 69 204 0.0 3.5 0.00 0.01 0.01 46 1008.3
20260506030505 58 153 0.0 0.0 0.03 0.54 0.54 95 1006.5
20260506030054 69 176 0.9 3.5 0.00 0.01 0.01 45 1008.3
20260506030019 58 153 0.0 0.0 0.04 0.54 0.54 95 1006.6
20260506025549 70 157 0.0 5.2 0.00 0.01 0.01 45 1008.3
20260506025507 58 153 0.0 0.0 0.04 0.54 0.54 95 1006.8
20260506025049 70 204 0.0 5.2 0.00 0.01 0.01 45 1008.1
20260506025007 58 215 0.0 0.0 0.05 0.54 0.54 95 1007.0
20260506024556 70 229 0.9 5.2 0.00 0.01 0.01 44 1008.2
20260506024510 58 215 0.0 0.0 0.06 0.54 0.54 95 1006.8
20260506024049 70 207 0.0 2.6 0.00 0.01 0.01 44 1008.2
20260506024002 58 215 0.0 0.0 0.06 0.52 0.52 95 1006.4
20260506023549 71 150 0.0 5.2 0.00 0.01 0.01 43 1008.2
20260506023501 59 215 0.0 0.9 0.06 0.52 0.52 95 1006.7
20260506023050 71 142 0.9 5.2 0.00 0.01 0.01 42 1008.3
20260506023003 59 215 0.0 0.9 0.06 0.52 0.52 95 1007.2
20260506022548 71 167 0.9 4.3 0.00 0.01 0.01 42 1008.1
20260506022503 59 215 0.0 0.0 0.07 0.52 0.52 94 1007.3
20260506022047 72 204 0.9 4.3 0.00 0.01 0.01 41 1008.1
20260506022003 59 215 0.0 0.0 0.07 0.52 0.52 94 1007.2
20260506021650 72 196 0.0 5.2 0.00 0.01 0.01 39 1008.1
20260506021505 59 215 0.0 0.0 0.09 0.52 0.52 94 1007.2
20260506021052 72 184 0.0 5.2 0.00 0.01 0.01 39 1008.1
20260506021003 59 215 0.0 0.0 0.10 0.52 0.52 94 1007.0
20260506020549 72 193 1.7 7.0 0.00 0.01 0.01 38 1008.2
20260506020505 59 215 0.0 0.0 0.11 0.51 0.51 94 1007.2
20260506020048 73 195 1.7 7.0 0.00 0.01 0.01 37 1007.9
20260506020008 59 215 0.0 0.0 0.11 0.50 0.50 94 1006.9
20260506015552 73 189 0.9 5.2 0.00 0.01 0.01 37 1008.0
20260506015504 59 215 0.0 0.0 0.14 0.50 0.50 94 1007.0
20260506015050 73 194 0.9 4.3 0.00 0.01 0.01 37 1007.9
20260506015005 59 215 0.0 0.0 0.16 0.49 0.49 94 1007.2
20260506014549 73 215 0.9 4.3 0.00 0.01 0.01 36 1007.9
20260506014517 59 215 0.0 0.0 0.15 0.48 0.48 94 1007.2
20260506014048 73 123 0.9 4.3 0.00 0.01 0.01 36 1007.9
20260506014003 59 215 0.0 0.0 0.14 0.47 0.47 94 1007.1
20260506013548 73 185 0.9 4.3 0.00 0.01 0.01 35 1007.8
20260506013509 59 215 0.0 0.0 0.14 0.47 0.47 94 1007.0
20260506013056 74 162 0.9 3.5 0.00 0.01 0.01 34 1007.8
20260506013007 59 215 0.0 0.0 0.14 0.47 0.47 94 1007.1
20260506012548 74 206 0.0 5.2 0.00 0.01 0.01 34 1007.7
20260506012503 59 215 0.0 0.0 0.13 0.46 0.46 94 1006.9
20260506012049 74 219 1.7 5.2 0.00 0.01 0.01 33 1007.6
20260506012003 59 215 0.0 0.0 0.13 0.46 0.46 94 1007.0
20260506011647 74 154 0.9 6.1 0.00 0.01 0.01 32 1007.6
20260506011504 59 215 0.0 0.9 0.11 0.44 0.44 93 1007.0
20260506011046 74 187 0.0 6.1 0.00 0.01 0.01 33 1007.5
20260506011004 59 215 0.0 0.9 0.09 0.42 0.42 93 1006.7
20260506010547 74 172 0.9 6.1 0.00 0.01 0.01 32 1007.6
20260506010504 59 247 0.0 0.9 0.07 0.40 0.40 93 1007.0
20260506010046 75 125 0.0 5.2 0.00 0.01 0.01 33 1007.4
20260506010008 59 247 0.0 0.9 0.06 0.39 0.39 93 1007.1
20260506005547 75 191 0.9 3.5 0.00 0.01 0.01 32 1007.4
20260506005504 59 247 0.0 0.9 0.04 0.36 0.36 92 1006.9
20260506005046 75 170 0.0 6.1 0.00 0.01 0.01 32 1007.3
20260506005004 59 248 0.0 0.9 0.01 0.33 0.33 92 1006.9
20260506004545 75 170 0.0 6.1 0.00 0.01 0.01 31 1007.4
20260506004511 60 147 0.0 0.9 0.01 0.33 0.33 91 1006.6
20260506004046 76 167 0.9 4.3 0.00 0.01 0.01 30 1007.2
20260506004003 60 147 0.0 4.3 0.01 0.33 0.33 91 1006.5
20260506003546 76 203 0.0 5.2 0.00 0.01 0.01 30 1007.1
20260506003509 60 142 0.0 4.3 0.01 0.33 0.33 91 1006.4
20260506003046 76 203 0.0 5.2 0.00 0.01 0.01 30 1007.1
20260506003016 60 144 0.9 4.3 0.01 0.33 0.33 91 1006.4
20260506002545 76 222 0.9 3.5 0.00 0.01 0.01 29 1007.2
20260506002507 60 156 0.0 2.6 0.01 0.33 0.33 91 1006.4
20260506002045 76 299 0.9 4.3 0.00 0.01 0.01 28 1007.1
20260506002007 60 151 0.0 3.5 0.01 0.33 0.33 91 1006.5
20260506001645 76 221 0.0 6.1 0.00 0.01 0.01 27 1006.9
20260506001503 60 142 1.7 3.5 0.02 0.33 0.33 91 1006.5
20260506001048 76 222 1.7 6.1 0.00 0.01 0.01 27 1007.0
20260506001003 60 141 0.0 2.6 0.02 0.33 0.33 91 1006.5
20260506000546 77 186 0.0 4.3 0.00 0.01 0.01 27 1007.0
20260506000504 60 136 0.9 3.5 0.03 0.33 0.33 92 1006.4
20260506000046 77 185 0.9 4.3 0.00 0.01 0.01 25 1007.1
20260506000004 60 133 0.0 3.5 0.03 0.33 0.33 92 1006.3
20260505235546 77 150 0.9 2.6 0.00 0.01 0.01 25 1006.9
20260505235504 60 151 0.0 2.6 0.02 0.32 0.32 92 1006.3
20260505235044 77 195 0.9 3.5 0.00 0.01 0.01 26 1006.8
20260505235004 60 143 0.0 0.0 0.02 0.32 0.32 91 1006.2
20260505234544 77 238 0.9 3.5 0.00 0.01 0.01 25 1006.9
20260505234506 60 143 0.0 0.9 0.02 0.32 0.32 91 1006.3
20260505234045 77 191 0.9 6.1 0.00 0.01 0.01 25 1006.8
20260505234005 60 143 0.0 1.7 0.02 0.32 0.32 91 1006.5
20260505233544 77 153 1.7 6.1 0.00 0.01 0.01 24 1006.7
20260505233504 60 124 0.0 1.7 0.02 0.32 0.32 90 1006.6
20260505233044 77 192 0.9 4.3 0.00 0.01 0.01 24 1006.6
20260505233008 60 143 0.9 2.6 0.02 0.32 0.32 90 1006.5
20260505232543 78 188 0.0 3.5 0.00 0.01 0.01 24 1006.7
20260505232507 61 130 0.0 2.6 0.02 0.32 0.32 90 1006.4
20260505232146 78 188 0.0 3.5 0.00 0.01 0.01 24 1006.7
20260505232005 61 144 1.7 2.6 0.02 0.32 0.32 90 1006.5
20260505231646 78 186 0.0 2.6 0.00 0.01 0.01 24 1006.5
20260505231515 61 138 0.9 3.5 0.01 0.31 0.31 90 1006.8
20260505231043 78 165 0.0 2.6 0.00 0.01 0.01 22 1006.6
20260505231006 61 132 0.9 3.5 0.01 0.31 0.31 90 1006.8
20260505230543 78 126 0.0 5.2 0.00 0.01 0.01 23 1006.4
20260505230507 61 129 0.0 2.6 0.00 0.30 0.30 91 1006.8
20260505230043 78 139 0.0 5.2 0.00 0.01 0.01 22 1006.4
20260505230015 61 138 0.9 4.3 0.00 0.30 0.30 91 1006.9
20260505225544 79 166 0.9 4.3 0.00 0.01 0.01 21 1006.3
20260505225506 61 139 0.9 4.3 0.00 0.30 0.30 91 1006.9
20260505225043 79 165 1.7 4.3 0.00 0.01 0.01 21 1006.2
20260505225005 61 131 0.0 5.2 0.00 0.30 0.30 91 1006.9
20260505224542 79 210 0.9 4.3 0.00 0.01 0.01 21 1006.2
20260505224507 61 166 0.9 5.2 0.00 0.30 0.30 91 1007.0
20260505224045 79 189 0.9 5.2 0.00 0.01 0.01 21 1006.0
20260505224002 61 131 1.7 5.2 0.00 0.30 0.30 91 1007.0
20260505223542 79 210 1.7 4.3 0.00 0.01 0.01 21 1006.0
20260505223505 61 146 1.7 4.3 0.01 0.30 0.30 91 1007.1
20260505223042 79 174 0.0 4.3 0.00 0.01 0.01 21 1006.1
20260505223008 61 135 0.9 4.3 0.01 0.30 0.30 91 1007.2
20260505222541 79 155 0.9 5.2 0.00 0.01 0.01 21 1006.1
20260505222504 61 185 0.9 3.5 0.01 0.30 0.30 91 1007.2
20260505222043 79 262 1.7 5.2 0.00 0.01 0.01 20 1006.0
20260505222008 61 148 0.9 2.6 0.01 0.30 0.30 91 1007.2
20260505221642 80 171 0.9 7.8 0.00 0.01 0.01 21 1005.9
20260505221514 61 131 0.0 4.3 0.01 0.30 0.30 91 1007.4
20260505221042 80 194 0.9 7.8 0.00 0.01 0.01 20 1005.9
20260505221010 61 139 0.9 4.3 0.02 0.30 0.30 91 1007.4
20260505220541 80 140 2.6 7.8 0.00 0.01 0.01 20 1006.0
20260505220508 61 136 1.7 7.0 0.02 0.30 0.30 91 1007.4
20260505220042 80 199 2.6 7.0 0.00 0.01 0.01 20 1005.9
20260505220024 61 136 0.9 7.0 0.02 0.30 0.30 91 1007.6
20260505215541 80 150 2.6 7.0 0.00 0.01 0.01 19 1006.0
20260505215507 61 114 1.7 7.0 0.03 0.30 0.30 91 1007.7
20260505215040 80 162 1.7 7.8 0.00 0.01 0.01 19 1005.8
20260505215007 61 166 0.9 7.0 0.03 0.30 0.30 91 1007.7
20260505214601 80 176 1.7 7.8 0.00 0.01 0.01 20 1005.9
20260505214505 61 148 1.7 7.0 0.03 0.30 0.30 92 1007.7
20260505214039 81 153 1.7 8.7 0.00 0.01 0.01 20 1005.7
20260505214003 61 168 0.9 5.2 0.04 0.30 0.30 92 1007.8
20260505213541 81 195 2.6 8.7 0.00 0.01 0.01 20 1005.7
20260505213502 61 150 0.9 5.2 0.04 0.29 0.29 92 1007.8
20260505213040 81 191 0.9 5.2 0.00 0.01 0.01 22 1005.4
20260505213010 61 118 0.9 3.5 0.05 0.29 0.29 92 1007.8
20260505212539 81 236 0.9 7.8 0.00 0.01 0.01 21 1005.4
20260505212502 61 145 0.0 3.5 0.06 0.29 0.29 92 1007.8
20260505212038 81 274 0.9 10.4 0.00 0.01 0.01 21 1005.7
20260505212007 61 68 0.9 6.1 0.08 0.29 0.29 92 1007.7
20260505211640 81 265 3.5 11.3 0.00 0.01 0.01 20 1005.4
20260505211514 61 198 1.7 6.1 0.09 0.29 0.29 92 1007.9
20260505211040 81 160 2.6 11.3 0.00 0.01 0.01 20 1005.6
20260505211006 61 149 2.6 5.2 0.09 0.28 0.28 92 1008.0
20260505210538 81 204 1.7 10.4 0.00 0.01 0.01 22 1005.4
20260505210506 61 130 0.9 4.3 0.10 0.28 0.28 92 1008.1
20260505210039 81 226 0.9 6.1 0.00 0.01 0.01 23 1005.3
20260505210015 61 146 1.7 4.3 0.11 0.28 0.28 91 1008.0
20260505205538 81 238 1.7 7.8 0.00 0.01 0.01 22 1005.6
20260505205507 61 136 0.9 4.3 0.11 0.27 0.27 91 1008.2
20260505205038 81 111 2.6 6.1 0.00 0.01 0.01 21 1005.7
20260505205014 61 142 0.9 4.3 0.11 0.27 0.27 91 1008.2
20260505204537 81 121 1.7 8.7 0.00 0.01 0.01 20 1005.6
20260505204519 61 131 1.7 3.5 0.12 0.27 0.27 91 1008.1
20260505204036 81 254 1.7 8.7 0.00 0.01 0.01 21 1005.5
20260505204009 61 129 0.0 3.5 0.12 0.26 0.26 91 1008.0
20260505203537 82 122 1.7 9.6 0.00 0.01 0.01 20 1005.6
20260505203508 61 141 0.9 6.1 0.12 0.25 0.25 91 1008.2
20260505203037 82 214 2.6 9.6 0.00 0.01 0.01 22 1005.4
20260505203003 61 111 1.7 6.1 0.13 0.24 0.24 91 1008.2
20260505202536 82 193 1.7 7.8 0.00 0.01 0.01 21 1005.5
20260505202502 61 128 1.7 4.3 0.15 0.23 0.23 91 1008.1
20260505202036 81 185 1.7 7.8 0.00 0.01 0.01 22 1005.7
20260505202001 61 129 0.9 2.6 0.15 0.21 0.21 91 1008.3
20260505201635 81 136 1.7 6.1 0.00 0.01 0.01 21 1005.5
20260505201512 61 128 0.0 2.6 0.14 0.20 0.20 90 1008.3
20260505201034 81 56 0.9 7.8 0.00 0.01 0.01 21 1005.7
20260505201005 61 139 0.9 2.6 0.13 0.19 0.19 90 1008.3
20260505200534 81 188 2.6 7.8 0.00 0.01 0.01 22 1005.7
20260505200506 61 118 0.0 2.6 0.12 0.18 0.18 90 1008.6
20260505200042 82 158 0.9 5.2 0.00 0.01 0.01 23 1005.6
20260505200014 61 137 0.0 2.6 0.11 0.17 0.17 90 1008.6
20260505195537 82 184 1.7 9.6 0.00 0.01 0.01 21 1005.6
20260505195506 61 138 0.9 4.3 0.10 0.16 0.16 89 1008.6
20260505195034 82 171 2.6 10.4 0.00 0.01 0.01 21 1005.8
20260505195006 61 101 0.0 8.7 0.10 0.16 0.16 88 1008.6
20260505194533 82 191 3.5 10.4 0.00 0.01 0.01 20 1005.8
20260505194504 62 141 0.9 8.7 0.09 0.15 0.15 87 1008.7
20260505194032 82 158 2.6 9.6 0.00 0.01 0.01 21 1005.8
20260505194004 62 136 0.9 2.6 0.08 0.14 0.14 86 1008.7
20260505193530 82 202 1.7 12.2 0.00 0.01 0.01 24 1005.9
20260505193501 63 114 0.0 2.6 0.07 0.13 0.13 85 1008.7
20260505193034 82 107 2.6 6.1 0.00 0.01 0.01 25 1006.1
20260505193003 64 135 0.0 4.3 0.05 0.11 0.11 82 1008.6
20260505192530 82 143 1.7 6.1 0.00 0.01 0.01 26 1006.1
20260505192502 66 289 0.9 7.0 0.02 0.08 0.08 78 1008.8
20260505192029 82 152 2.6 9.6 0.00 0.01 0.01 22 1006.2
20260505192003 68 306 1.7 7.0 0.00 0.06 0.06 70 1008.7
20260505191630 82 169 1.7 6.1 0.00 0.01 0.01 23 1006.2
20260505191508 68 101 1.7 6.1 0.00 0.06 0.06 68 1008.3
20260505191028 82 217 1.7 7.0 0.00 0.01 0.01 26 1006.3
20260505191001 68 115 1.7 6.1 0.00 0.06 0.06 67 1008.2
20260505190528 82 183 0.9 7.0 0.00 0.01 0.01 25 1006.4
20260505190503 69 141 1.7 7.8 0.00 0.06 0.06 67 1008.1
20260505190030 82 186 0.9 5.2 0.00 0.01 0.01 23 1006.3
20260505190012 68 226 1.7 7.8 0.00 0.06 0.06 67 1008.3
20260505185527 82 175 1.7 5.2 0.00 0.01 0.01 24 1006.3
20260505185506 69 142 3.5 7.0 0.00 0.06 0.06 66 1008.1
20260505185028 82 139 2.6 5.2 0.00 0.01 0.01 24 1006.4
20260505185006 68 145 1.7 6.1 0.00 0.06 0.06 67 1008.1
20260505184527 82 162 1.7 4.3 0.00 0.01 0.01 25 1006.5
20260505184512 68 58 1.7 6.1 0.00 0.06 0.06 67 1008.2
20260505184025 81 185 1.7 7.8 0.00 0.01 0.01 24 1006.7
20260505184008 68 109 2.6 7.0 0.00 0.06 0.06 67 1008.3
20260505183527 81 142 0.9 7.8 0.00 0.01 0.01 25 1006.7
20260505183506 68 124 2.6 7.0 0.00 0.06 0.06 67 1008.6
20260505183030 82 132 3.5 7.8 0.00 0.01 0.01 23 1006.6
20260505183004 68 155 1.7 7.0 0.00 0.06 0.06 68 1008.5
20260505182524 82 224 0.9 6.1 0.00 0.01 0.01 27 1006.8
20260505182502 68 118 1.7 7.8 0.00 0.06 0.06 68 1008.7
20260505182024 82 271 1.7 7.0 0.00 0.01 0.01 26 1006.7
20260505182002 68 155 2.6 7.8 0.00 0.06 0.06 67 1008.7
20260505181624 82 113 0.9 9.6 0.00 0.01 0.01 27 1006.7
20260505181506 68 326 1.7 7.0 0.00 0.06 0.06 67 1008.7
20260505181023 81 128 1.7 9.6 0.00 0.01 0.01 25 1006.6
20260505181002 68 134 1.7 6.1 0.00 0.06 0.06 66 1008.8
20260505180522 81 230 0.9 6.1 0.00 0.01 0.01 28 1006.8
20260505180504 68 127 1.7 6.1 0.00 0.06 0.06 66 1008.8
20260505180023 81 120 1.7 6.1 0.00 0.01 0.01 27 1006.7
20260505180015 68 121 1.7 7.0 0.00 0.06 0.06 66 1009.0
20260505175520 81 156 1.7 6.1 0.00 0.01 0.01 28 1006.8
20260505175503 68 165 1.7 10.4 0.00 0.06 0.06 66 1009.1
20260505175019 81 194 1.7 6.1 0.00 0.01 0.01 27 1006.8
20260505175003 68 106 0.9 10.4 0.00 0.06 0.06 67 1009.0
20260505174519 81 158 0.9 9.6 0.00 0.01 0.01 30 1006.9
20260505174511 68 7 1.7 7.8 0.00 0.06 0.06 64 1008.9
20260505174019 80 161 3.5 9.6 0.00 0.01 0.01 27 1006.8
20260505174007 68 135 0.9 4.3 0.00 0.06 0.06 67 1008.9
20260505173522 80 195 1.7 4.3 0.00 0.01 0.01 28 1006.9
20260505173506 68 126 1.7 6.1 0.00 0.06 0.06 64 1008.9
20260505173017 80 177 0.9 3.5 0.00 0.01 0.01 32 1006.9
20260505173014 68 20 1.7 7.8 0.00 0.06 0.06 65 1009.1
20260505172515 68 122 1.7 7.8 0.00 0.06 0.06 65 1009.1
20260505172015 80 208 0.0 8.7 0.00 0.01 0.01 31 1007.2
20260505171614 79 174 0.9 6.1 0.00 0.01 0.01 31 1007.6
20260505171505 68 108 1.7 7.0 0.00 0.06 0.06 65 1009.2
20260505171013 79 184 1.7 6.1 0.00 0.01 0.01 30 1007.5
20260505171006 68 147 1.7 8.7 0.00 0.06 0.06 65 1009.2
20260505170512 79 169 1.7 5.2 0.00 0.01 0.01 31 1007.6
20260505170502 68 146 2.6 8.7 0.00 0.06 0.06 65 1009.2
20260505170013 79 157 0.9 5.2 0.00 0.01 0.01 33 1007.5
20260505170005 68 314 0.9 7.0 0.00 0.06 0.06 65 1009.2
20260505165510 79 166 0.9 7.0 0.00 0.01 0.01 32 1007.6
20260505165503 67 34 0.9 7.0 0.00 0.06 0.06 65 1009.1
20260505165009 78 212 2.6 7.0 0.00 0.01 0.01 31 1007.7
20260505165004 67 294 1.7 6.1 0.00 0.06 0.06 66 1009.2
20260505164508 78 132 0.9 5.2 0.00 0.01 0.01 31 1007.6
20260505164009 78 184 0.0 5.2 0.00 0.01 0.01 34 1007.8
20260505164003 67 127 3.5 6.1 0.00 0.06 0.06 64 1009.2
20260505163509 78 184 1.7 5.2 0.00 0.01 0.01 32 1007.8
20260505163504 67 139 0.9 7.0 0.00 0.06 0.06 65 1009.2
20260505163012 67 116 1.7 7.0 0.00 0.06 0.06 64 1009.1
20260505163009 77 245 1.7 3.5 0.00 0.01 0.01 33 1007.9
20260505162506 67 122 1.7 8.7 0.00 0.06 0.06 64 1009.2
20260505162502 77 143 0.0 4.3 0.00 0.01 0.01 35 1007.9
20260505162007 67 131 3.5 8.7 0.00 0.06 0.06 63 1009.2
20260505162002 77 133 0.9 6.1 0.00 0.01 0.01 34 1008.1
20260505161608 77 184 1.7 7.8 0.00 0.01 0.01 34 1008.1
20260505161518 67 130 1.7 7.8 0.00 0.06 0.06 63 1009.2
20260505161006 67 140 2.6 7.0 0.00 0.06 0.06 64 1009.2
20260505161002 77 152 2.6 7.8 0.00 0.01 0.01 34 1008.2
20260505160507 67 144 2.6 6.1 0.00 0.06 0.06 64 1009.2
20260505160504 76 181 0.9 6.1 0.00 0.01 0.01 35 1008.2
20260505153103 75 141 0.0 4.3 0.00 0.01 0.01 40 1008.7
20260505153012 66 145 2.6 7.0 0.00 0.06 0.06 66 1009.1
20260505152556 75 141 1.7 5.2 0.00 0.01 0.01 37 1008.7
20260505152506 66 71 2.6 7.0 0.00 0.06 0.06 68 1009.1
20260505152055 75 210 1.7 4.3 0.00 0.01 0.01 37 1008.7
20260505152008 66 321 0.9 6.1 0.00 0.06 0.06 69 1008.9
20260505151604 74 152 0.9 4.3 0.00 0.01 0.01 39 1008.8
20260505151517 66 131 1.7 7.8 0.00 0.06 0.06 71 1008.9
20260505151054 74 142 0.9 4.3 0.00 0.01 0.01 39 1008.9
20260505151006 65 158 3.5 7.8 0.00 0.06 0.06 70 1008.9
20260505150554 74 158 0.0 5.2 0.00 0.01 0.01 39 1008.8
20260505150507 65 154 1.7 7.0 0.00 0.06 0.06 71 1009.0